Weather History for KLWD - March, 2013

Change the Weather History Date:

Saturday, March 2, 2013

  Actual Average Record
Temperature  
Mean Temperature 24 °F 34 °F  
Max Temperature 27 °F 44 °F 77 °F (1992)
Min Temperature 20 °F 24 °F -6 °F (2014)
Degree Days  
Heating Degree Days 41 31  
Month to date heating degree days 80 63  
Since 1 July heating degree days 4478 4780  
Cooling Degree Days 0 0  
Month to date cooling degree days 0 0  
Year to date cooling degree days 0 0  
Moisture  
Dew Point 15 °F    
Average Humidity 69    
Maximum Humidity 74    
Minimum Humidity 63    
Precipitation  
Precipitation 0.00 in 0.06 in 1.17 in (1965)
Month to date precipitation T 0.12  
Sea Level Pressure  
Sea Level Pressure 30.31 in    
Wind  
Wind Speed 6 mph (WNW)    
Max Wind Speed 14 mph    
Max Gust Speed 18 mph    
Visibility 10 miles    
Events      
T = Trace of Precipitation, MM = Missing Value Source: NWS Daily Summary

Daily Weather History Graph

Daily Weather History Graph

Search for Another Location

Airport or City:

Trip Planner

Search our weather history database for the weather conditions in past years. The results will help you decide how hot, cold, wet, or windy it might be!

Date:

Astronomy

Mar. 02, 2013 Rise Set
Actual Time 6:47 AM CST 6:08 PM CST
Civil Twilight 6:20 AM CST 6:35 PM CST
Nautical Twilight 5:48 AM CST 7:07 PM CST
Astronomical Twilight 5:16 AM CST 7:39 PM CST
Moon 11:50 PM CST (3/2) 9:14 AM CST (3/2)
Length of Visible Light 12h 15m
Length of Day
11h 20m
Waning Gibbous, 74% of the Moon is Illuminated
Mar 2
Waning Gibbous
Mar 4
Last Quarter
Mar 11
New
Mar 19
First Quarter
Mar 27
Full

Hourly Weather History & Observations

Time (CST) Temp. Windchill Dew Point Humidity Pressure Visibility Wind Dir Wind Speed Gust Speed Precip Events Conditions
1:53 AM 23.0 °F 15.8 °F 14.0 °F 68% 30.34 in 10.0 mi North 5.8 mph - N/A   Overcast
2:53 AM 21.9 °F 13.4 °F 14.0 °F 72% 30.33 in 10.0 mi North 6.9 mph - N/A   Overcast
3:53 AM 23.0 °F 13.9 °F 14.0 °F 68% 30.32 in 10.0 mi North 8.1 mph - N/A   Overcast
4:53 AM 21.9 °F 11.7 °F 14.0 °F 72% 30.33 in 10.0 mi North 9.2 mph - N/A   Overcast
5:53 AM 21.9 °F 12.5 °F 14.0 °F 72% 30.35 in 10.0 mi NNW 8.1 mph - N/A   Overcast
6:53 AM 21.9 °F 12.5 °F 12.9 °F 68% 30.35 in 10.0 mi North 8.1 mph - N/A   Overcast
7:53 AM 21.0 °F 9.9 °F 14.0 °F 74% 30.37 in 10.0 mi NW 10.4 mph - N/A   Overcast
8:53 AM 21.0 °F 9.9 °F 12.9 °F 71% 30.37 in 10.0 mi NW 10.4 mph - N/A   Overcast
9:53 AM 21.0 °F 10.6 °F 14.0 °F 74% 30.37 in 10.0 mi NW 9.2 mph - N/A   Overcast
10:53 AM 21.9 °F 10.4 °F 14.0 °F 72% 30.36 in 10.0 mi WNW 11.5 mph - N/A   Mostly Cloudy
11:02 AM 21.2 °F 10.1 °F 14.0 °F 74% 30.31 in 10.0 mi WNW 10.4 mph - N/A   Scattered Clouds
11:53 AM 23.0 °F 11.7 °F 15.1 °F 72% 30.35 in 10.0 mi WNW 11.5 mph - N/A   Partly Cloudy
12:53 PM 24.1 °F 15.2 °F 16.0 °F 71% 30.32 in 10.0 mi West 8.1 mph - N/A   Clear
1:53 PM 25.0 °F 18.1 °F 16.0 °F 69% 30.30 in 10.0 mi West 5.8 mph - N/A   Clear
2:53 PM 26.1 °F 19.4 °F 16.0 °F 66% 30.29 in 10.0 mi West 5.8 mph - N/A   Clear
3:53 PM 26.1 °F 20.5 °F 15.1 °F 63% 30.29 in 10.0 mi West 4.6 mph - N/A   Clear
4:53 PM 26.1 °F 20.5 °F 15.1 °F 63% 30.28 in 10.0 mi West 4.6 mph - N/A   Clear
5:53 PM 24.1 °F - 15.1 °F 69% 30.27 in 10.0 mi Calm Calm - N/A   Clear
6:53 PM 23.0 °F - 15.1 °F 72% 30.27 in 10.0 mi Calm Calm - N/A   Overcast
7:53 PM 24.1 °F - 15.1 °F 69% 30.26 in 10.0 mi Calm Calm - N/A   Overcast
8:53 PM 24.1 °F 19.7 °F 15.1 °F 69% 30.25 in 10.0 mi SSE 3.5 mph - N/A   Overcast
9:53 PM 24.1 °F 18.2 °F 15.1 °F 69% 30.24 in 10.0 mi SSE 4.6 mph - N/A   Overcast
10:53 PM 24.1 °F 18.2 °F 16.0 °F 71% 30.22 in 10.0 mi South 4.6 mph - N/A   Overcast
11:53 PM 23.0 °F 17.0 °F 15.1 °F 72% 30.21 in 10.0 mi South 4.6 mph - N/A   Mostly Cloudy